Location: Risskov
(56.1972°N, 10.2480°E)
Time: 23:04:26
(UTC+00:00)

Cosmos 332 Rocket - Pass Details

Date: 05 July 2020
Orbit: 682 x 703 km, 74.0° (Epoch: 03 August)

Event Time Altitude Azimuth Distance (km) Brightness Sun altitude
Rises 23:10:34 0° 330° (NNW) 3,061 8.3 -11.1°
Reaches altitude 10° 23:12:54 10° 326° (NNW) 2,140 7.3 -11.1°
Maximum altitude 23:17:38 59° 248° (WSW) 791 4.0 -11.1°
Enters shadow 23:21:27 15° 172° (S) 1,793 5.3 -11.1°
